Coldwater, MI

9:52 AM EST on November 22, 2017 (GMT -0500)
Branch County Memorial

Weather History for KOEB - May, 2014

Change the Weather History Date:

Friday, May 16, 2014

  Actual Average (KJYM) Record (KJYM)
Temperature  
Mean Temperature 42 °F -  
Max Temperature 52 °F 68 °F 88 °F (1962)
Min Temperature 33 °F 44 °F 26 °F (1984)
Degree Days  
Heating Degree Days 22    
Moisture  
Dew Point 36 °F    
Average Humidity 76    
Maximum Humidity 99    
Minimum Humidity 53    
Precipitation  
Precipitation 0.00 in - - ()
Sea Level Pressure  
Sea Level Pressure 30.01 in    
Wind  
Wind Speed 4 mph (NW)    
Max Wind Speed 10 mph    
Max Gust Speed -    
Visibility 9 miles    
Events Rain    
Averages and records for this station are not official NWS values.
T = Trace of Precipitation, MM = Missing Value Source: NWS Daily Summary

Daily Weather History Graph

Daily Weather History Graph

Search for Another Location

Airport or City:

Trip Planner

Search our weather history database for the weather conditions in past years. The results will help you decide how hot, cold, wet, or windy it might be!

Date:

Astronomy

May. 16, 2014 Rise Set
Actual Time 6:18 AM EDT 8:54 PM EDT
Civil Twilight 5:46 AM EDT 9:26 PM EDT
Nautical Twilight 5:07 AM EDT 10:07 PM EDT
Astronomical Twilight 4:21 AM EDT 10:52 PM EDT
Moon 11:00 PM EDT (5/16) 7:59 AM EDT (5/16)
Length of Visible Light 15h 39m
Length of Day
14h 35m
Waning Gibbous, 95% of the Moon is Illuminated
May 16
Waning Gibbous
May 21
Last Quarter
May 28
New
Jun 5
First Quarter
Jun 13
Full

Hourly Weather History & Observations

Time (EDT) Temp. Windchill Dew Point Humidity Pressure Visibility Wind Dir Wind Speed Gust Speed Precip Events Conditions
12:15 AM 36.7 °F 32.9 °F 35.6 °F 96% 30.02 in 10.0 mi West 4.6 mph - N/A   Clear
12:34 AM 36.3 °F 31.6 °F 35.1 °F 95% 30.02 in 10.0 mi West 5.8 mph - N/A   Clear
12:55 AM 36.1 °F 32.3 °F 35.2 °F 97% 30.02 in 10.0 mi West 4.6 mph - N/A   Clear
1:15 AM 35.8 °F 31.9 °F 34.9 °F 97% 30.01 in 10.0 mi West 4.6 mph - N/A   Clear
1:34 AM 36.1 °F 33.5 °F 35.2 °F 97% 30.01 in 10.0 mi WNW 3.5 mph - N/A   Clear
1:55 AM 36.1 °F 33.5 °F 35.1 °F 96% 30.01 in 10.0 mi WNW 3.5 mph - N/A   Clear
2:15 AM 36.5 °F 33.9 °F 35.1 °F 95% 30.01 in 10.0 mi NW 3.5 mph - N/A   Clear
2:35 AM 36.0 °F - 34.5 °F 94% 30.01 in 10.0 mi Calm Calm - N/A   Clear
2:55 AM 34.9 °F - 33.6 °F 95% 30.01 in 10.0 mi Calm Calm - N/A   Clear
3:15 AM 36.1 °F - 35.6 °F 98% 30.01 in 10.0 mi Calm Calm - N/A   Clear
3:35 AM 35.6 °F - 34.9 °F 97% 30.01 in 10.0 mi Calm Calm - N/A   Clear
3:55 AM 35.8 °F - 35.2 °F 98% 30.01 in 10.0 mi Calm Calm - N/A   Clear
4:15 AM 35.1 °F - 34.5 °F 98% 30.01 in 10.0 mi Calm Calm - N/A   Clear
4:35 AM 34.9 °F - 34.5 °F 99% 30.01 in 7.0 mi Calm Calm - N/A   Clear
4:55 AM 34.7 °F - 34.2 °F 98% 30.00 in 10.0 mi Calm Calm - N/A   Clear
5:15 AM 33.8 °F - 33.4 °F 99% 30.01 in 5.0 mi Calm Calm - N/A   Clear
5:35 AM 33.6 °F - 33.3 °F 99% 30.01 in 3.0 mi Calm Calm - N/A   Clear
5:55 AM 34.2 °F - 33.8 °F 99% 30.00 in 7.0 mi Calm Calm - N/A   Clear
6:15 AM 33.1 °F - 32.9 °F 99% 30.01 in 2.5 mi Calm Calm - N/A   Clear
6:35 AM 33.8 °F - 33.4 °F 99% 30.01 in 3.0 mi Calm Calm - N/A   Clear
6:55 AM 33.8 °F - 33.3 °F 98% 30.01 in 1.8 mi Calm Calm - N/A   Scattered Clouds
7:14 AM 34.9 °F 32.0 °F 34.7 °F 99% 30.01 in 5.0 mi WNW 3.5 mph - N/A   Scattered Clouds
7:35 AM 37.9 °F 34.4 °F 37.6 °F 99% 30.02 in 10.0 mi NW 4.6 mph - N/A   Scattered Clouds
7:55 AM 39.9 °F - 39.0 °F 97% 30.02 in 10.0 mi Calm Calm - N/A   Mostly Cloudy
8:14 AM 40.6 °F 38.6 °F 38.1 °F 91% 30.01 in 10.0 mi NNW 3.5 mph - N/A   Scattered Clouds
8:35 AM 41.5 °F 39.6 °F 38.5 °F 89% 30.01 in 10.0 mi NNW 3.5 mph - N/A   Clear
8:55 AM 43.2 °F - 38.5 °F 84% 30.01 in 10.0 mi Calm Calm - N/A   Clear
9:15 AM 44.1 °F 42.5 °F 37.9 °F 79% 30.02 in 10.0 mi WSW 3.5 mph - N/A   Scattered Clouds
9:35 AM 44.4 °F 42.9 °F 37.6 °F 77% 30.01 in 10.0 mi West 3.5 mph - N/A   Scattered Clouds
9:55 AM 44.8 °F - 36.3 °F 72% 30.01 in 10.0 mi Calm Calm - N/A   Mostly Cloudy
10:15 AM 46.9 °F - 36.3 °F 67% 30.01 in 10.0 mi WNW 3.5 mph - N/A   Overcast
10:35 AM 47.5 °F - 35.1 °F 62% 30.01 in 10.0 mi NW 3.5 mph - N/A   Mostly Cloudy
10:55 AM 48.0 °F - 33.8 °F 58% 30.01 in 10.0 mi WNW 3.5 mph - N/A   Mostly Cloudy
11:15 AM 47.5 °F - 34.3 °F 60% 30.00 in 10.0 mi NNW 10.4 mph - N/A   Mostly Cloudy
11:35 AM 47.5 °F - 34.3 °F 60% 30.00 in 10.0 mi NNW 5.8 mph - N/A   Mostly Cloudy
11:55 AM 49.1 °F - 35.1 °F 58% 30.00 in 10.0 mi West 3.5 mph - N/A   Mostly Cloudy
12:15 PM 49.3 °F - 36.0 °F 60% 30.00 in 10.0 mi West 8.1 mph - N/A   Mostly Cloudy
12:35 PM 50.2 °F - 36.5 °F 59% 30.00 in 10.0 mi NW 6.9 mph - N/A   Overcast
12:55 PM 49.6 °F - 36.3 °F 60% 30.00 in 10.0 mi WNW 8.1 mph - N/A   Overcast
1:15 PM 51.8 °F - 37.0 °F 57% 29.99 in 10.0 mi NW 5.8 mph - N/A   Overcast
1:35 PM 50.9 °F - 35.4 °F 55% 29.99 in 10.0 mi NW 3.5 mph - N/A   Overcast
1:55 PM 52.0 °F - 36.3 °F 55% 29.99 in 10.0 mi North 8.1 mph - N/A   Overcast
2:15 PM 50.7 °F - 35.4 °F 56% 29.99 in 10.0 mi NW 6.9 mph - N/A   Overcast
2:35 PM 51.8 °F - 35.6 °F 54% 29.99 in 10.0 mi WNW 4.6 mph - N/A   Overcast
2:55 PM 50.5 °F - 35.4 °F 56% 29.99 in 10.0 mi NW 5.8 mph - N/A   Overcast
3:15 PM 51.6 °F - 34.9 °F 53% 29.99 in 10.0 mi NW 3.5 mph - N/A   Overcast
3:35 PM 51.3 °F - 35.8 °F 55% 29.99 in 10.0 mi WNW 5.8 mph - N/A   Overcast
3:55 PM 51.3 °F - 36.1 °F 56% 29.99 in 10.0 mi NNW 6.9 mph - N/A   Overcast
4:15 PM 51.6 °F - 36.5 °F 56% 29.99 in 10.0 mi North 5.8 mph - N/A   Overcast
4:35 PM 51.8 °F - 37.4 °F 58% 29.99 in 10.0 mi WNW 5.8 mph - N/A   Overcast
4:55 PM 50.9 °F - 37.2 °F 59% 29.99 in 10.0 mi NNW 5.8 mph - N/A   Overcast
5:15 PM 50.5 °F - 35.8 °F 57% 29.99 in 10.0 mi NW 5.8 mph - N/A   Overcast
5:35 PM 50.4 °F - 37.9 °F 62% 29.99 in 10.0 mi NW 5.8 mph - N/A   Overcast
5:55 PM 50.4 °F - 38.3 °F 63% 29.99 in 10.0 mi NW 6.9 mph - N/A   Overcast
6:15 PM 50.2 °F - 37.8 °F 62% 29.99 in 10.0 mi NW 8.1 mph - N/A   Overcast
6:35 PM 49.6 °F - 37.8 °F 64% 29.99 in 10.0 mi NW 9.2 mph - N/A   Overcast
6:54 PM 49.8 °F - 38.3 °F 65% 29.99 in 10.0 mi NW 6.9 mph - N/A   Overcast
7:15 PM 49.5 °F - 37.9 °F 65% 30.00 in 10.0 mi NW 6.9 mph - N/A   Overcast
7:35 PM 49.1 °F - 36.9 °F 63% 30.00 in 10.0 mi NW 8.1 mph - N/A   Overcast
7:54 PM 48.7 °F - 37.6 °F 65% 30.01 in 10.0 mi NNW 8.1 mph - N/A   Overcast
8:15 PM 48.2 °F - 36.9 °F 65% 30.01 in 10.0 mi NNW 10.4 mph - N/A   Overcast
8:35 PM 47.3 °F - 36.5 °F 66% 30.01 in 10.0 mi NNW 8.1 mph - N/A   Overcast
8:55 PM 46.8 °F - 36.7 °F 68% 30.02 in 10.0 mi NNW 6.9 mph - N/A   Overcast
9:15 PM 46.4 °F 43.5 °F 36.5 °F 68% 30.02 in 10.0 mi NNW 5.8 mph - N/A   Overcast
9:35 PM 46.4 °F 42.9 °F 36.5 °F 68% 30.03 in 10.0 mi NW 6.9 mph - N/A   Overcast
9:55 PM 46.0 °F 43.9 °F 37.2 °F 71% 30.03 in 10.0 mi NNW 4.6 mph - N/A Rain Light Rain
10:15 PM 45.5 °F 44.2 °F 38.3 °F 76% 30.04 in 10.0 mi NNW 3.5 mph - N/A   Overcast
10:32 PM 45.1 °F 42.8 °F 38.3 °F 77% 30.04 in 10.0 mi NNW 4.6 mph - N/A   Overcast
10:55 PM 45.1 °F 41.4 °F 37.8 °F 75% 30.04 in 10.0 mi NNW 6.9 mph - N/A   Overcast
11:15 PM 45.1 °F 42.8 °F 38.5 °F 77% 30.04 in 10.0 mi NW 4.6 mph - N/A   Overcast
11:35 PM 44.8 °F 42.4 °F 38.5 °F 79% 30.04 in 10.0 mi NW 4.6 mph - N/A   Overcast
11:55 PM 45.0 °F 42.6 °F 38.3 °F 77% 30.04 in 10.0 mi NW 4.6 mph - N/A   Overcast